Regional Weather Roundup
Issued by NWS

Home | Current Version | Previous Version | Graphics & Text | Print | Product List | Glossary Off
Versions: 1 2 3 4 5 6 7 8 9 10 11 12 13 14 15 16 17 18 19 20 21 22 23 24 25 26 27 28 29 30 31 32 33 34 35 36 37 38 39 40 41 42 43 44 45 46 47 48 49 50

000
ASUS43 KMPX 010101
RWRMN
WEATHER ROUNDUP FOR MINNESOTA
NATIONAL WEATHER SERVICE TWIN CITIES/CHANHASSEN MN
800 PM CDT TUE SEP 30 2014


NOTE: "FAIR" INDICATES FEW OR NO CLOUDS BELOW 12,000 FEET WITH NO
SIGNIFICANT WEATHER AND/OR OBSTRUCTIONS TO VISIBILITY. N/A MEANS
CURRENT SKY AND/OR WEATHER CONDITIONS ARE NOT AVAILABLE.

MNZ060>063-068>070-010200-
   Twin Cities Metro

CITY           SKY/WX    TMP DP  RH WIND       PRES   REMARKS
TWIN CITIES    CLOUDY    54  44  69 SE12      29.93R
ST PAUL        PTCLDY    53  44  71 SE9       29.93R
CRYSTAL        MOCLDY    57  44  62 SE15G21   29.91R
BLAINE         MOCLDY    55  46  71 E9        29.91R
LAKEVILLE      PTCLDY    52  45  76 SE5       29.92R
EDEN PRAIRIE   CLOUDY    56  46  69 E12       29.90R
SOUTH ST PAUL  PTCLDY    54  45  71 SE7       29.92S
LAKE ELMO      FAIR      52  45  76 SE7       29.93S
$$
MNZ001>005-007-008-013>017-022>024-027-028-010200-
   Northwest Minnesota

CITY           SKY/WX    TMP DP  RH WIND       PRES   REMARKS
BEMIDJI        CLOUDY    53  44  71 SE12      29.80R
HALLOCK        MOCLDY    57  45  62 SE14G20   29.67S
ROSEAU         MOCLDY    55  46  71 E12       29.72F
WARROAD        MOCLDY    55  46  71 E16G22    29.75F
THIEF RVR FALL CLOUDY    55  43  62 SE16G23   29.70S
CROOKSTON      CLOUDY    59  46  63 SE15      29.67F
FOSSTON        CLOUDY    54  43  66 SE14G24   29.71F
DETROIT LAKES  CLOUDY    54  45  71 SE18G33   29.73F
PARK RAPIDS    CLOUDY    53  43  68 SE15G23   29.77F
MAHNOMEN       CLOUDY    55  44  66 SE20G29   29.70R
$$
MNZ006-009>011-018-025>026-010200-
   North Central Minnesota

CITY           SKY/WX    TMP DP  RH WIND       PRES   REMARKS
BAUDETTE       MOCLDY    54  43  66 SE10G18   29.79F
FLAG ISLAND    CLOUDY    55  46  71 SE9G17    29.78F
INTL FALLS     MOCLDY    49  42  77 E10       29.86F
WASKISH        MOCLDY    54  45  71 E9G20     29.79F
BIG FORK       MOCLDY    50  43  76 SE9       29.87F
LONGVILLE      MOCLDY    52  45  76 SE8       29.82F
GRAND RAPIDS   MOCLDY    46  39  76 SE9G18    29.88F
CRANE LAKE     PTCLDY    45  41  87 CALM      29.93F
ORR            MOCLDY    46  37  71 SE9       29.88F
COOK           MOCLDY    45  39  81 SE5         N/A
WALKER         FAIR      53  44  69 SE7       29.81S
$$
MNZ012-019>021-037-010200-
   Northeast Minnesota

CITY           SKY/WX    TMP DP  RH WIND       PRES   REMARKS
DULUTH         CLOUDY    45  41  86 E18G25    29.95F
ELY            PTCLDY    41  37  87 SE5       29.97S
HIBBING        MOCLDY    43  39  86 SE9       29.93F
EVELETH        CLOUDY    43  39  87 E9        29.95F
DULUTH HARBOR  PTCLDY    50  46  87 E22       29.97S
TWO HARBORS    CLOUDY    45  39  81 E14G20    29.96F
SILVER BAY     PTCLDY    39  39 100 NE3       29.99S
GRAND MARAIS     N/A     46  37  71 NE12G18   30.02F
G MARAIS ARPRT CLEAR     37  30  75 NE9       30.01F
$$
MNZ029>031-032-039>041-046>048-054>057-064-010200-
   West Central Minnesota

CITY           SKY/WX    TMP DP  RH WIND       PRES   REMARKS
FERGUS FALLS   CLOUDY    55  45  67 SE17G31   29.71R
WHEATON        CLOUDY    55  48  76 SE22G31   29.68S
MORRIS         CLOUDY    57  48  72 SE22G29   29.71S
ALEXANDRIA     CLOUDY    54  45  71 SE18G32   29.78S
ELBOW LAKE     MOCLDY    55  48  75 SE18G26   29.71R
WADENA         CLOUDY    52  43  71 SE20G26   29.78S
GLENWOOD       CLOUDY    54  46  76 E12G22    29.78F
APPLETON       CLOUDY    59  52  77 SE14G21   29.70S
BENSON         CLOUDY    57  50  77 S14G24    29.73F
ORTONVILLE     CLOUDY    57  52  82 SE15G22   29.68S
MADISON        CLOUDY    64  55  72 SE18G25   29.70R
WILLMAR        FAIR      57  48  72 SE14G23   29.78F
$$
MNZ033>034-036-042>043-049>051-058-059-010200-
   Central Minnesota

CITY           SKY/WX    TMP DP  RH WIND       PRES   REMARKS
ST CLOUD       MOCLDY    55  44  66 E10       29.85F
SAUK CENTRE    FAIR      53  46  75 E12G18    29.80F
PAYNESVILLE    CLOUDY    53  45  76 E10       29.81F
AITKIN         MOCLDY    54  45  71 E8        29.86R
PINE RIVER     CLOUDY    54  45  71 SE10G21   29.87R
BRAINERD       CLOUDY    53  44  71 SE13G22   29.85R
STAPLES        CLOUDY    52  43  71 SE8       29.83R
LONG PRAIRIE   CLOUDY    52  43  71 E16G22    29.82F
LITTLE FALLS   MOCLDY    52  43  71 E12G21    29.84S
LITCHFIELD     DRIZZLE   55  52  88 SE12G22   29.82F
BUFFALO        MOCLDY    55  45  68 E14       29.87F
MAPLE LAKE     MOCLDY    56  47  73 E12G20    29.86F
$$
MNZ037-044-045-052-053-010200-
   East Central Minnesota

CITY           SKY/WX    TMP DP  RH WIND       PRES   REMARKS
MORA           MOCLDY    50  43  76 E10       29.92S
CAMBRIDGE      MOCLDY    55  43  62 E8        29.88F
RUSH CITY      MOCLDY    51  45  78 SE5       29.92R
MOOSE LAKE     MOCLDY    45  41  87 E6        29.91S
HINCKLEY       FAIR      52  45  76 S3        29.93R
CLOQUET        CLOUDY    46  43  87 E9G17     29.94S
MCGREGOR       PTCLDY    46  43  87 E13       29.89F
$$
MNZ071>073-080-081-089-090-097-098-010200-
   Southwest Minnesota

CITY           SKY/WX    TMP DP  RH WIND       PRES   REMARKS
MONTEVIDEO     CLOUDY    59  54  82 S15G21    29.74F
GRANITE FALLS  CLOUDY    60  53  78 E16G25    29.77R
CANBY          MOCLDY    61  57  84 SE15G22   29.71R
MARSHALL       MOCLDY    61  54  77 S17       29.73S
REDWOOD FALLS  CLOUDY    59  54  83 SE15G23   29.78S
OLIVIA         CLOUDY    57  50  77 SE13G20   29.78S
PIPESTONE      CLOUDY    63  59  88 S17G26    29.75R
WINDOM         CLOUDY    61  57  88 SE14      29.81S
WORTHINGTON    CLOUDY    59  57  94 SE13G21   29.81R
JACKSON        CLOUDY    59  55  88 SE13      29.83S
TRACY          CLOUDY    60  58  91 S14       29.78R
SLAYTON        MOCLDY    59  58  96 SE15G23   29.79R
$$
MNZ065>067-074>077-082>085-091>093-010200-
   South Central Minnesota

CITY           SKY/WX    TMP DP  RH WIND       PRES   REMARKS
MANKATO        CLOUDY    61  48  63 SE17G23   29.88S
NEW ULM        CLOUDY    61  55  82 SE14G21   29.82R
ST JAMES       CLOUDY    61  55  82 SE15      29.83F
FAIRMONT       CLOUDY    59  54  82 SE17G23   29.82S
GLENCOE        CLOUDY    59  47  64 E18G25    29.82F
FARIBAULT      MOCLDY    55  48  76 SE7       29.93R
OWATONNA       MOCLDY    55  46  71 SE5       29.92R
WASECA         CLOUDY    57  45  62 S8        29.96R
ALBERT LEA     CLOUDY    57  48  72 SE6       29.90S
$$
MNZ078>079-086>088-094>096-010200-
   Southeast Minnesota

CITY           SKY/WX    TMP DP  RH WIND       PRES   REMARKS
ROCHESTER      PTCLDY    52  46  80 SE10      29.94S
RED WING       PTCLDY    54  45  71 SE9       29.93S
STANTON        PTCLDY    53  45  75 SE7       29.91R
DODGE CENTER   PTCLDY    54  46  76 SE12      29.92S
WINONA         PTCLDY    50  45  81 SE8       29.98R
AUSTIN         CLOUDY    55  46  71 SE8       29.91F
PRESTON        PTCLDY    51  45  78 SE10      29.96R
$$
ABBREVIATIONS USED IN REMARKS
   TC - TEMPERATURES IN CELSIUS
  WCI - WIND CHILL INDEX
   HX - HEAT INDEX
  VSB - VISIBILITY
$$



USA.gov is the U.S. government's official web portal to all federal, state and local government web resources and services.